Location: PACMO
(41.3967°N, 90.3760°W)
Time: 14:01:51
(UTC-05:00)

NOAA 19 - Visible Passes

Search period start: 26 September 2016 00:00
Search period end: 06 October 2016 00:00
Orbit: 842 x 861 km, 99.1° (Epoch: 26 September)

Date Brightness Start Highest point End Pass type
(mag) Time Alt. Az. Time Alt. Az. Time Alt. Az.
26 Sep 6.1 03:44:54 10° NNE 03:49:52 46° E 03:49:52 46° E visible
26 Sep 6.3 05:26:12 10° N 05:30:39 25° WNW 05:31:53 23° W visible
27 Sep 6.5 03:33:39 10° NNE 03:38:12 36° E 03:38:12 36° E visible
27 Sep 6.0 05:14:32 10° N 05:19:21 31° WNW 05:20:14 29° W visible
28 Sep 6.9 03:22:29 10° NE 03:26:33 29° E 03:26:33 29° E visible
28 Sep 5.7 05:02:57 10° N 05:08:03 38° WNW 05:08:35 37° W visible
29 Sep 7.2 03:11:25 10° NE 03:14:54 23° E 03:14:54 23° E visible
29 Sep 5.4 04:51:23 10° N 04:56:42 47° WNW 04:56:55 47° WNW visible
30 Sep 7.6 03:00:28 10° NE 03:03:14 18° ENE 03:03:14 18° ENE visible
30 Sep 5.2 04:39:53 10° N 04:45:15 59° WNW 04:45:15 59° WNW visible
01 Oct 7.8 02:49:46 10° ENE 02:51:34 14° ENE 02:51:34 14° ENE visible
01 Oct 5.2 04:28:25 10° N 04:33:36 71° NW 04:33:36 71° NW visible
01 Oct 7.1 06:12:08 10° NW 06:13:42 11° NW 06:15:17 10° WNW visible
02 Oct 8.1 02:39:41 10° ENE 02:39:54 10° ENE 02:39:54 10° ENE visible
02 Oct 5.3 04:16:59 10° NNE 04:21:56 71° NNE 04:21:56 71° NNE visible
02 Oct 6.9 05:59:43 10° NNW 06:02:29 14° WNW 06:03:57 13° WNW visible
03 Oct 5.7 04:05:37 10° NNE 04:10:15 59° NE 04:10:15 59° NE visible
03 Oct 6.7 05:47:43 10° NNW 05:51:15 17° WNW 05:52:17 17° WNW visible
04 Oct 6.1 03:54:17 10° NNE 03:58:35 47° ENE 03:58:35 47° ENE visible
04 Oct 6.4 05:35:54 10° NNW 05:39:59 22° WNW 05:40:37 21° WNW visible
05 Oct 6.5 03:43:00 10° NNE 03:46:55 37° ENE 03:46:55 37° ENE visible
05 Oct 6.2 05:24:11 10° N 05:28:43 26° WNW 05:28:57 26° WNW visible
